Location: Krakow
(50.0830°N, 19.9170°E)
Time: 17:41:42
(UTC+01:00)

Explorer 7 - Visible Passes

Search period start: 29 January 2023 00:00
Search period end: 08 February 2023 00:00
Orbit: 480 x 660 km, 50.3° (Epoch: 29 January)

Date Brightness Start Highest point End Pass type
(mag) Time Alt. Az. Time Alt. Az. Time Alt. Az.
29 Jan 7.2 17:17:27 10° W 17:22:03 82° SSW 17:26:51 10° ESE visible
29 Jan 8.3 18:57:51 10° W 19:02:10 37° SSW 19:03:24 31° S visible
30 Jan 7.4 17:18:27 10° W 17:23:03 72° SSW 17:27:48 10° ESE visible
30 Jan 8.8 18:59:00 10° W 19:03:01 28° SW 19:04:55 21° S visible
31 Jan 7.6 17:19:28 10° W 17:24:00 61° SSW 17:28:42 10° ESE visible
31 Jan 9.3 19:00:16 10° W 19:03:48 21° SW 19:06:36 13° S visible
01 Feb 8.0 17:20:29 10° W 17:24:55 49° SSW 17:29:31 10° SE visible
01 Feb 9.8 19:01:47 10° W 19:04:32 16° SW 19:07:21 10° S visible
02 Feb 8.5 17:21:31 10° W 17:25:48 39° SSW 17:30:12 10° SE visible
02 Feb 10.1 19:04:04 10° WSW 19:05:14 11° SW 19:06:25 10° SSW visible
03 Feb 9.1 17:22:36 10° W 17:26:36 30° SW 17:30:43 10° SSE visible
04 Feb 9.6 17:23:47 10° W 17:27:22 23° SW 17:31:02 10° SSE visible
05 Feb 10.0 17:25:11 10° W 17:28:05 17° SW 17:31:03 10° S visible
06 Feb 10.3 17:27:07 10° WSW 17:28:45 12° SW 17:30:24 10° SSW visible
